EW5239 Weather Reports


Display with metric or nautical units.
time (UTC)temp
F
wind
direction
speed
MPH
gust
MPH
rain 1hr
in
rain 24hr
in
rain mn
in
humidity
%
barometer
mb
20260503013506 46 181 1.0 2.0 0.00 0.00 0.00 79 1016.6
20260503013125 45 162 0.0 1.0 0.00 0.00 0.00 81 1018.6
20260503012624 45 145 0.0 1.0 0.00 0.00 0.00 81 1018.6
20260503012506 46 136 0.0 2.0 0.00 0.00 0.00 78 1016.5
20260503012125 45 135 0.0 1.0 0.00 0.00 0.00 79 1018.5
20260503012005 46 0 0.0 0.0 0.00 0.00 0.00 77 1016.6
20260503011625 45 0 0.0 0.0 0.00 0.00 0.00 79 1018.6
20260503011506 46 181 0.0 1.0 0.00 0.00 0.00 77 1016.6
20260503011125 46 181 0.0 1.0 0.00 0.00 0.00 78 1018.5
20260503010625 46 181 0.0 1.0 0.00 0.00 0.00 78 1018.5
20260503010506 47 181 0.0 2.0 0.00 0.00 0.00 76 1016.5
20260503010006 47 0 0.0 0.0 0.00 0.00 0.00 76 1016.6
20260503005625 46 0 0.0 0.0 0.00 0.00 0.00 76 1018.5
20260503005125 47 0 0.0 0.0 0.00 0.00 0.00 76 1018.7
20260503005005 48 0 0.0 0.0 0.00 0.00 0.00 75 1016.8
20260503004506 49 135 0.0 1.0 0.00 0.00 0.00 74 1016.6
20260503004125 48 135 0.0 2.0 0.00 0.00 0.00 76 1018.6
20260503003124 48 91 2.0 2.0 0.00 0.00 0.00 76 1018.6
20260503003006 49 90 3.0 3.0 0.00 0.00 0.00 74 1016.7
20260503002506 49 90 3.0 3.0 0.00 0.00 0.00 74 1016.6
20260503002005 49 90 2.0 3.0 0.00 0.00 0.00 73 1016.6
20260503001625 47 90 1.0 2.0 0.00 0.00 0.00 75 1018.4
20260503001506 49 90 1.0 2.0 0.00 0.00 0.00 72 1016.6
20260503001125 47 0 0.0 0.0 0.00 0.00 0.00 75 1018.6
20260503001007 49 0 0.0 0.0 0.00 0.00 0.00 72 1016.8
20260503000625 48 0 0.0 0.0 0.00 0.00 0.00 72 1018.7
20260503000506 49 270 0.0 1.0 0.00 0.00 0.00 70 1016.7
20260503000131 48 0 0.0 0.0 0.00 0.00 0.00 72 1018.5
20260503000006 49 270 0.0 2.0 0.00 0.00 0.00 70 1016.9
20260502235625 48 270 0.0 1.0 0.00 0.00 0.00 70 1018.7
20260502235125 49 270 0.0 1.0 0.00 0.00 0.00 69 1018.6
20260502235006 50 270 0.0 2.0 0.00 0.00 0.00 68 1016.9
20260502234125 50 181 0.0 1.0 0.00 0.00 0.00 66 1018.5
20260502234006 51 181 1.0 2.0 0.00 0.00 0.00 66 1016.8
20260502233625 51 181 1.0 2.0 0.00 0.00 0.00 66 1018.6
20260502233506 52 181 2.0 2.0 0.00 0.00 0.00 66 1016.9
20260502233125 51 181 1.0 2.0 0.00 0.00 0.00 65 1018.5
20260502233006 52 190 1.0 2.0 0.00 0.00 0.00 64 1016.8
20260502232625 52 183 1.0 2.0 0.00 0.00 0.00 64 1018.6
20260502232505 53 189 1.0 2.0 0.00 0.00 0.00 64 1016.8
20260502232125 53 167 2.0 2.0 0.00 0.00 0.00 63 1018.6
20260502231506 53 159 2.0 3.0 0.00 0.00 0.00 64 1016.9
20260502231124 53 157 2.0 2.0 0.00 0.00 0.00 63 1018.7
20260502231006 54 157 2.0 2.0 0.00 0.00 0.00 62 1016.9
20260502230506 54 173 2.0 2.0 0.00 0.00 0.00 62 1016.9
20260502230006 54 181 1.0 2.0 0.00 0.00 0.00 62 1017.2
20260502225625 54 181 1.0 2.0 0.00 0.00 0.00 60 1019.0
20260502225506 54 225 0.0 2.0 0.00 0.00 0.00 61 1017.0
20260502225125 55 181 0.0 2.0 0.00 0.00 0.00 59 1018.8
20260502225006 55 186 1.0 2.0 0.00 0.00 0.00 61 1017.0
20260502224625 55 177 1.0 2.0 0.00 0.00 0.00 59 1018.8
20260502224125 55 177 1.0 2.0 0.00 0.00 0.00 58 1018.7
20260502224006 55 188 2.0 2.0 0.00 0.00 0.00 60 1017.0
20260502223625 56 184 1.0 2.0 0.00 0.00 0.00 58 1018.7
20260502223506 56 185 2.0 2.0 0.00 0.00 0.00 60 1017.1
20260502223125 56 183 2.0 3.0 0.00 0.00 0.00 58 1019.0
20260502222624 56 181 3.0 4.0 0.00 0.00 0.00 59 1018.8
20260502222506 56 201 3.0 4.0 0.00 0.00 0.00 61 1017.1
20260502222125 55 183 3.0 4.0 0.00 0.00 0.00 61 1019.0
20260502222006 55 212 4.0 4.0 0.00 0.00 0.00 63 1017.3
20260502221506 54 196 3.0 4.0 0.00 0.00 0.00 64 1017.3
20260502221124 53 185 1.0 4.0 0.00 0.00 0.00 65 1019.1
20260502221006 53 181 2.0 4.0 0.00 0.00 0.00 65 1017.3
20260502220625 53 181 0.0 1.0 0.00 0.00 0.00 65 1019.0
20260502220506 53 181 1.0 2.0 0.00 0.00 0.00 66 1017.3
20260502220132 53 181 0.0 1.0 0.00 0.00 0.00 65 1019.0
20260502220007 53 181 1.0 2.0 0.00 0.00 0.00 66 1017.3
20260502215624 53 181 0.0 1.0 0.00 0.00 0.00 65 1019.0
20260502215506 53 181 1.0 2.0 0.00 0.00 0.00 65 1017.3
20260502215125 53 174 1.0 2.0 0.00 0.00 0.00 65 1019.1
20260502215005 53 171 1.0 2.0 0.00 0.00 0.00 65 1017.3
20260502214625 53 172 1.0 2.0 0.00 0.00 0.00 65 1019.1
20260502214506 53 169 2.0 2.0 0.00 0.00 0.00 65 1017.4
20260502214125 53 173 1.0 2.0 0.00 0.00 0.00 65 1019.2
20260502213625 53 171 1.0 2.0 0.00 0.00 0.00 65 1019.1
20260502213505 53 169 2.0 2.0 0.00 0.00 0.00 65 1017.4
20260502213125 52 167 1.0 2.0 0.00 0.00 0.00 65 1019.1
20260502213006 53 175 1.0 2.0 0.00 0.00 0.00 64 1017.4
20260502212125 53 221 1.0 2.0 0.00 0.00 0.00 64 1019.2
20260502212006 53 230 2.0 2.0 0.00 0.00 0.00 63 1017.6
20260502211506 54 229 2.0 3.0 0.00 0.00 0.00 62 1017.6
20260502211125 53 187 2.0 4.0 0.00 0.00 0.00 64 1019.2
20260502211005 54 192 2.0 4.0 0.00 0.00 0.00 62 1017.5
20260502210625 53 185 3.0 4.0 0.00 0.00 0.00 64 1019.3
20260502210506 54 178 3.0 4.0 0.00 0.00 0.00 62 1017.5
20260502210131 53 183 3.0 4.0 0.00 0.00 0.00 64 1019.3
20260502210006 54 181 3.0 3.0 0.00 0.00 0.00 62 1017.4
20260502205625 53 178 2.0 4.0 0.00 0.00 0.00 64 1019.2
20260502205506 54 183 2.0 3.0 0.00 0.00 0.00 61 1017.6
20260502205124 53 177 2.0 2.0 0.00 0.00 0.00 63 1019.3
20260502205006 54 183 2.0 3.0 0.00 0.00 0.00 61 1017.6
20260502204624 53 176 2.0 2.0 0.00 0.00 0.00 63 1019.3
20260502204505 55 177 1.0 2.0 0.00 0.00 0.00 61 1017.7
20260502204125 54 176 1.0 2.0 0.00 0.00 0.00 61 1019.4
20260502204006 55 181 0.0 2.0 0.00 0.00 0.00 58 1017.6
20260502203625 54 178 1.0 2.0 0.00 0.00 0.00 61 1019.4
20260502203506 56 181 0.0 2.0 0.00 0.00 0.00 58 1017.7
20260502203125 55 176 0.0 1.0 0.00 0.00 0.00 59 1019.3
20260502203005 57 181 0.0 2.0 0.00 0.00 0.00 57 1017.7
20260502202506 57 181 1.0 2.0 0.00 0.00 0.00 56 1017.5
20260502202125 57 162 1.0 2.0 0.00 0.00 0.00 57 1019.4
20260502201505 58 177 2.0 4.0 0.00 0.00 0.00 55 1017.7
20260502201006 58 181 3.0 4.0 0.00 0.00 0.00 55 1017.7
20260502200130 57 184 2.0 3.0 0.00 0.00 0.00 55 1019.4
20260502200005 58 176 2.0 4.0 0.00 0.00 0.00 54 1017.7
20260502195625 57 158 1.0 2.0 0.00 0.00 0.00 55 1019.4
20260502195506 58 171 2.0 2.0 0.00 0.00 0.00 54 1017.7
20260502195125 58 156 1.0 2.0 0.00 0.00 0.00 54 1019.3
20260502195006 58 188 1.0 2.0 0.00 0.00 0.00 54 1017.6
20260502194625 58 256 1.0 3.0 0.00 0.00 0.00 53 1019.5
20260502194505 59 271 1.0 3.0 0.00 0.00 0.00 52 1017.7
20260502194125 59 238 1.0 3.0 0.00 0.00 0.00 50 1019.4
20260502194006 60 243 2.0 3.0 0.00 0.00 0.00 51 1017.7
20260502193506 61 182 2.0 2.0 0.00 0.00 0.00 49 1017.8
20260502193125 61 162 2.0 2.0 0.00 0.00 0.00 46 1019.7
20260502193006 61 174 2.0 2.0 0.00 0.00 0.00 48 1017.9
20260502192625 61 171 2.0 3.0 0.00 0.00 0.00 46 1019.4
20260502192506 62 184 2.0 3.0 0.00 0.00 0.00 48 1017.9
20260502192006 62 188 2.0 3.0 0.00 0.00 0.00 46 1017.8
20260502191624 62 191 2.0 3.0 0.00 0.00 0.00 44 1019.5
20260502191506 62 181 2.0 3.0 0.00 0.00 0.00 45 1017.9
20260502191125 63 192 2.0 3.0 0.00 0.00 0.00 42 1019.5
20260502191005 63 192 2.0 3.0 0.00 0.00 0.00 43 1017.9
20260502190625 63 187 2.0 3.0 0.00 0.00 0.00 42 1019.7
20260502190506 63 199 3.0 3.0 0.00 0.00 0.00 43 1017.9
20260502190130 64 188 2.0 3.0 0.00 0.00 0.00 41 1019.7
20260502185625 64 185 2.0 3.0 0.00 0.00 0.00 41 1019.7
20260502185505 64 202 3.0 4.0 0.00 0.00 0.00 42 1017.7
20260502185125 64 182 2.0 3.0 0.00 0.00 0.00 41 1019.7
20260502184506 65 192 2.0 3.0 0.00 0.00 0.00 42 1017.9
20260502184006 65 186 3.0 4.0 0.00 0.00 0.00 42 1017.7
20260502183625 65 176 3.0 4.0 0.00 0.00 0.00 39 1019.4
20260502183506 65 189 3.0 4.0 0.00 0.00 0.00 41 1017.9
20260502182625 66 189 2.0 3.0 0.00 0.00 0.00 38 1019.5
20260502182505 67 168 3.0 3.0 0.00 0.00 0.00 39 1017.9
20260502182125 67 189 2.0 3.0 0.00 0.00 0.00 38 1019.3
20260502182006 67 174 2.0 3.0 0.00 0.00 0.00 38 1017.8
20260502181506 68 181 2.0 2.0 0.00 0.00 0.00 37 1017.8
20260502181125 68 186 2.0 2.0 0.00 0.00 0.00 36 1019.5
20260502181005 69 181 2.0 2.0 0.00 0.00 0.00 36 1017.7
20260502180624 69 187 1.0 2.0 0.00 0.00 0.00 35 1019.5
20260502180506 69 184 2.0 2.0 0.00 0.00 0.00 36 1017.8
20260502180131 69 172 2.0 4.0 0.00 0.00 0.00 35 1019.2
20260502170506 73 149 4.0 7.0 0.00 0.00 0.00 30 1017.8
20260502170130 73 155 4.0 7.0 0.00 0.00 0.00 28 1019.4
20260502164125 75 139 5.0 9.0 0.00 0.00 0.00 26 1019.5
20260502164006 74 134 5.0 8.0 0.00 0.00 0.00 29 1018.1
20260502163625 75 137 5.0 9.0 0.00 0.00 0.00 26 1019.5
20260502163125 75 136 5.0 7.0 0.00 0.00 0.00 26 1019.5
20260502163006 74 139 5.0 7.0 0.00 0.00 0.00 29 1018.2
20260502162625 75 162 6.0 10.0 0.00 0.00 0.00 28 1019.8
20260502162506 75 155 6.0 9.0 0.00 0.00 0.00 29 1018.0
20260502162125 75 174 7.0 10.0 0.00 0.00 0.00 27 1019.7
20260502162006 75 175 7.0 9.0 0.00 0.00 0.00 27 1018.1
20260502161505 75 187 6.0 8.0 0.00 0.00 0.00 29 1018.2
20260502161125 75 178 5.0 7.0 0.00 0.00 0.00 26 1019.7
20260502161006 75 192 5.0 6.0 0.00 0.00 0.00 30 1018.1
20260502160625 76 144 5.0 7.0 0.00 0.00 0.00 26 1020.1
20260502160506 74 157 5.0 6.0 0.00 0.00 0.00 29 1018.2
20260502160130 76 131 5.0 7.0 0.00 0.00 0.00 27 1020.0
20260502152125 75 202 4.0 7.0 0.00 0.00 0.00 26 1020.2
20260502152005 75 205 4.0 8.0 0.00 0.00 0.00 28 1018.7
20260502151506 76 232 3.0 8.0 0.00 0.00 0.00 28 1018.8
20260502151125 76 193 1.0 4.0 0.00 0.00 0.00 26 1020.4
20260502151006 75 198 2.0 4.0 0.00 0.00 0.00 29 1018.8
20260502150625 76 214 3.0 6.0 0.00 0.00 0.00 26 1020.4
20260502150506 75 192 4.0 6.0 0.00 0.00 0.00 29 1019.0
20260502150130 75 199 4.0 6.0 0.00 0.00 0.00 26 1020.2
20260502130506 74 199 4.0 5.0 0.00 0.00 0.00 31 1020.2
20260502130133 74 185 3.0 5.0 0.00 0.00 0.00 27 1021.8
20260502123625 74 312 5.0 8.0 0.00 0.00 0.00 27 1022.1
20260502123506 73 319 5.0 8.0 0.00 0.00 0.00 30 1020.5
20260502123006 73 284 4.0 6.0 0.00 0.00 0.00 31 1020.5
20260502122625 74 316 4.0 6.0 0.00 0.00 0.00 28 1022.2
20260502122125 74 36 4.0 6.0 0.00 0.00 0.00 28 1022.2
20260502122006 72 352 3.0 5.0 0.00 0.00 0.00 31 1020.8
20260502121625 73 105 4.0 5.0 0.00 0.00 0.00 27 1022.0
20260502121506 72 186 4.0 8.0 0.00 0.00 0.00 30 1020.7
20260502121125 74 48 5.0 7.0 0.00 0.00 0.00 28 1022.2
20260502120625 74 353 6.0 7.0 0.00 0.00 0.00 27 1022.5
20260502120506 73 277 6.0 8.0 0.00 0.00 0.00 31 1020.9
20260502120130 74 325 4.0 7.0 0.00 0.00 0.00 28 1022.4
20260502115625 74 283 3.0 5.0 0.00 0.00 0.00 29 1022.5
20260502115505 72 244 4.0 7.0 0.00 0.00 0.00 31 1020.9
20260502115125 74 269 4.0 7.0 0.00 0.00 0.00 29 1022.5
20260502115006 72 272 4.0 7.0 0.00 0.00 0.00 32 1021.0
20260502114506 72 309 4.0 8.0 0.00 0.00 0.00 31 1021.1
20260502114125 74 302 4.0 8.0 0.00 0.00 0.00 27 1022.8
20260502114006 73 287 5.0 9.0 0.00 0.00 0.00 31 1021.2
20260502113625 74 272 4.0 8.0 0.00 0.00 0.00 30 1022.9
20260502113506 72 263 4.0 9.0 0.00 0.00 0.00 32 1021.3
20260502113125 73 95 3.0 5.0 0.00 0.00 0.00 31 1022.7
20260502113006 72 93 4.0 5.0 0.00 0.00 0.00 32 1021.2
20260502112625 72 95 4.0 8.0 0.00 0.00 0.00 29 1022.9
20260502112125 72 97 5.0 8.0 0.00 0.00 0.00 30 1023.0
20260502112005 72 65 5.0 8.0 0.00 0.00 0.00 32 1021.3
20260502111625 73 55 4.0 7.0 0.00 0.00 0.00 28 1022.9
20260502111505 72 8 4.0 8.0 0.00 0.00 0.00 32 1021.4
20260502111125 73 347 4.0 8.0 0.00 0.00 0.00 28 1023.1
20260502111006 72 318 5.0 7.0 0.00 0.00 0.00 31 1021.5
20260502110625 73 309 6.0 8.0 0.00 0.00 0.00 29 1023.1
20260502110505 72 312 5.0 7.0 0.00 0.00 0.00 32 1021.6
20260502110131 73 302 4.0 8.0 0.00 0.00 0.00 31 1023.2
20260502110006 72 350 4.0 7.0 0.00 0.00 0.00 32 1021.7
20260502105625 72 78 4.0 6.0 0.00 0.00 0.00 31 1023.2
20260502105505 71 91 4.0 7.0 0.00 0.00 0.00 34 1021.7
20260502105125 72 51 4.0 6.0 0.00 0.00 0.00 31 1023.1
20260502105006 71 358 4.0 6.0 0.00 0.00 0.00 33 1021.6
20260502104625 72 14 5.0 8.0 0.00 0.00 0.00 31 1023.5
20260502104506 72 327 5.0 8.0 0.00 0.00 0.00 32 1021.8
20260502104125 72 15 5.0 8.0 0.00 0.00 0.00 29 1023.5
20260502104005 72 339 6.0 8.0 0.00 0.00 0.00 32 1021.9
20260502103625 72 15 5.0 8.0 0.00 0.00 0.00 30 1023.6
20260502103506 71 357 4.0 8.0 0.00 0.00 0.00 33 1021.8
20260502103125 72 72 3.0 6.0 0.00 0.00 0.00 31 1023.6
20260502102625 72 44 3.0 7.0 0.00 0.00 0.00 31 1023.6
20260502102505 71 36 4.0 8.0 0.00 0.00 0.00 34 1022.1
20260502102125 72 14 5.0 8.0 0.00 0.00 0.00 30 1023.7
20260502102006 71 341 5.0 8.0 0.00 0.00 0.00 33 1022.3
20260502101506 71 328 5.0 8.0 0.00 0.00 0.00 34 1022.1
20260502101125 72 341 5.0 7.0 0.00 0.00 0.00 32 1023.6
20260502101005 70 321 5.0 6.0 0.00 0.00 0.00 35 1022.3
20260502100625 71 330 6.0 8.0 0.00 0.00 0.00 32 1024.0
20260502100506 70 307 6.0 8.0 0.00 0.00 0.00 35 1022.3
20260502100131 71 324 4.0 8.0 0.00 0.00 0.00 33 1024.1
20260502091506 69 191 4.0 5.0 0.00 0.00 0.00 37 1022.9
20260502091125 70 159 5.0 8.0 0.00 0.00 0.00 34 1024.4
20260502091006 69 168 5.0 8.0 0.00 0.00 0.00 38 1022.9
20260502090625 69 181 5.0 9.0 0.00 0.00 0.00 34 1024.3
20260502090505 69 178 6.0 10.0 0.00 0.00 0.00 37 1022.8
20260502090131 70 184 5.0 9.0 0.00 0.00 0.00 35 1024.5
20260502071505 63 221 5.0 7.0 0.00 0.00 0.00 49 1023.1
20260502071125 63 218 4.0 7.0 0.00 0.00 0.00 45 1024.8
20260502071006 63 205 4.0 7.0 0.00 0.00 0.00 50 1023.1
20260502070625 62 237 4.0 5.0 0.00 0.00 0.00 48 1024.8
20260502070505 63 210 4.0 6.0 0.00 0.00 0.00 50 1023.1
20260502070132 62 226 4.0 4.0 0.00 0.00 0.00 48 1024.9
20260502065625 61 206 3.0 5.0 0.00 0.00 0.00 52 1024.6
20260502065506 62 241 4.0 5.0 0.00 0.00 0.00 54 1023.1
20260502065125 61 195 4.0 5.0 0.00 0.00 0.00 53 1024.7
20260502065005 62 196 4.0 5.0 0.00 0.00 0.00 54 1023.1
20260502064625 60 176 4.0 5.0 0.00 0.00 0.00 53 1024.7
20260502064505 62 172 4.0 5.0 0.00 0.00 0.00 54 1023.0
20260502064125 60 174 4.0 5.0 0.00 0.00 0.00 54 1025.0
20260502064006 61 173 3.0 5.0 0.00 0.00 0.00 55 1023.2
20260502063625 60 181 3.0 5.0 0.00 0.00 0.00 55 1025.0
20260502063505 60 175 3.0 5.0 0.00 0.00 0.00 57 1023.2
20260502063125 59 188 3.0 4.0 0.00 0.00 0.00 56 1024.9
20260502062625 59 222 3.0 5.0 0.00 0.00 0.00 59 1024.7
20260502062506 59 221 4.0 4.0 0.00 0.00 0.00 59 1023.2
20260502062125 58 228 3.0 5.0 0.00 0.00 0.00 63 1024.7
20260502062005 59 227 3.0 4.0 0.00 0.00 0.00 63 1023.1
20260502061125 56 189 2.0 3.0 0.00 0.00 0.00 73 1024.8
20260502061006 59 190 1.0 3.0 0.00 0.00 0.00 68 1023.2
20260502060006 56 224 2.0 3.0 0.00 0.00 0.00 74 1023.1
20260502055625 54 233 2.0 2.0 0.00 0.00 0.00 81 1024.7
20260502055506 56 233 2.0 3.0 0.00 0.00 0.00 76 1022.9
20260502055125 53 235 2.0 2.0 0.00 0.00 0.00 84 1024.8
20260502055005 55 250 1.0 3.0 0.00 0.00 0.00 79 1022.9
20260502054505 53 270 0.0 2.0 0.00 0.00 0.00 81 1023.1
20260502054125 51 205 1.0 2.0 0.00 0.00 0.00 88 1025.0
20260502054006 52 0 0.0 0.0 0.00 0.00 0.00 82 1023.1
20260502053625 50 193 1.0 2.0 0.00 0.00 0.00 89 1024.8
20260502053506 51 0 0.0 0.0 0.00 0.00 0.00 84 1023.1
20260502053005 50 0 0.0 0.0 0.00 0.00 0.00 85 1023.0
20260502052506 49 0 0.0 0.0 0.00 0.00 0.00 87 1023.0
20260502052125 48 270 1.0 2.0 0.00 0.00 0.00 95 1025.0
20260502051625 47 242 1.0 2.0 0.00 0.00 0.00 96 1024.7
20260502051506 47 0 0.0 0.0 0.00 0.00 0.00 90 1023.0
20260502051125 47 168 1.0 2.0 0.00 0.00 0.00 97 1024.9
20260502051006 47 0 0.0 0.0 0.00 0.00 0.00 91 1022.9
20260502050625 46 139 0.0 2.0 0.00 0.00 0.00 97 1024.9
20260502050505 46 0 0.0 0.0 0.00 0.00 0.00 92 1022.8
20260502050131 45 143 0.0 2.0 0.00 0.00 0.00 97 1024.8
20260502050006 43 0 0.0 0.0 0.00 0.00 0.00 93 1023.0
20260502045626 44 163 0.0 1.0 0.00 0.00 0.00 98 1024.8
20260502045505 42 0 0.0 0.0 0.00 0.00 0.00 93 1022.9
20260502045124 43 0 0.0 0.0 0.00 0.00 0.00 99 1024.8
20260502045006 41 0 0.0 0.0 0.00 0.00 0.00 93 1022.8
20260502044125 40 0 0.0 0.0 0.00 0.00 0.00 99 1024.8
20260502044005 40 0 0.0 0.0 0.00 0.00 0.00 94 1022.7
20260502043625 39 0 0.0 0.0 0.00 0.00 0.00 99 1024.7
20260502043506 40 0 0.0 0.0 0.00 0.00 0.00 94 1022.8
20260502043125 38 0 0.0 0.0 0.00 0.00 0.00 99 1024.6
20260502043006 39 0 0.0 0.0 0.00 0.00 0.00 94 1022.8
20260502042625 38 0 0.0 0.0 0.00 0.00 0.00 99 1025.0
20260502042505 39 0 0.0 0.0 0.00 0.00 0.00 94 1022.6
20260502042125 37 0 0.0 0.0 0.00 0.00 0.00 98 1024.7
20260502042006 39 0 0.0 0.0 0.00 0.00 0.00 94 1022.5
20260502041505 38 0 0.0 0.0 0.00 0.00 0.00 93 1022.5
20260502041125 37 135 0.0 1.0 0.00 0.00 0.00 94 1024.7
20260502040625 37 135 0.0 1.0 0.00 0.00 0.00 93 1024.7
20260502040506 38 0 0.0 0.0 0.00 0.00 0.00 92 1022.3
20260502040130 36 0 0.0 0.0 0.00 0.00 0.00 93 1024.7
20260502040006 38 0 0.0 0.0 0.00 0.00 0.00 92 1022.3
20260502035505 37 0 0.0 0.0 0.00 0.00 0.00 92 1022.4
20260502035125 36 0 0.0 0.0 0.00 0.00 0.00 93 1024.5
20260502035006 37 0 0.0 0.0 0.00 0.00 0.00 88 1022.3
20260502034625 36 0 0.0 0.0 0.00 0.00 0.00 92 1024.7
20260502034506 37 0 0.0 0.0 0.00 0.00 0.00 88 1022.4
20260502034125 36 0 0.0 0.0 0.00 0.00 0.00 92 1024.7
20260502034005 37 0 0.0 0.0 0.00 0.00 0.00 87 1022.5
20260502033506 37 0 0.0 0.0 0.00 0.00 0.00 87 1022.4
20260502033125 36 0 0.0 0.0 0.00 0.00 0.00 92 1024.9
20260502033005 37 0 0.0 0.0 0.00 0.00 0.00 87 1022.5
20260502032625 36 0 0.0 0.0 0.00 0.00 0.00 92 1024.6
20260502032125 36 0 0.0 0.0 0.00 0.00 0.00 92 1024.6
20260502032006 37 0 0.0 0.0 0.00 0.00 0.00 91 1022.4
20260502031625 36 0 0.0 0.0 0.00 0.00 0.00 92 1024.6
20260502031125 36 0 0.0 0.0 0.00 0.00 0.00 91 1024.7
20260502030625 36 0 0.0 0.0 0.00 0.00 0.00 91 1024.7
20260502030506 38 0 0.0 0.0 0.00 0.00 0.00 90 1022.4
20260502030131 36 0 0.0 0.0 0.00 0.00 0.00 91 1024.7
20260502030005 38 0 0.0 0.0 0.00 0.00 0.00 90 1022.5
20260502025625 36 0 0.0 0.0 0.00 0.00 0.00 91 1024.7
20260502025506 38 0 0.0 0.0 0.00 0.00 0.00 90 1022.5
20260502025125 37 0 0.0 0.0 0.00 0.00 0.00 91 1024.8
20260502025005 38 0 0.0 0.0 0.00 0.00 0.00 90 1022.5
20260502024625 37 0 0.0 0.0 0.00 0.00 0.00 91 1024.6
20260502024505 38 0 0.0 0.0 0.00 0.00 0.00 90 1022.6
20260502024125 37 0 0.0 0.0 0.00 0.00 0.00 91 1024.8
20260502023625 37 0 0.0 0.0 0.00 0.00 0.00 91 1024.6
20260502023506 38 0 0.0 0.0 0.00 0.00 0.00 89 1022.6
20260502023005 38 0 0.0 0.0 0.00 0.00 0.00 89 1022.4
20260502022625 37 0 0.0 0.0 0.00 0.00 0.00 91 1024.8
20260502022506 38 0 0.0 0.0 0.00 0.00 0.00 89 1022.5
20260502022126 37 0 0.0 0.0 0.00 0.00 0.00 91 1024.9
20260502021625 37 0 0.0 0.0 0.00 0.00 0.00 94 1024.8
20260502021505 39 0 0.0 0.0 0.00 0.00 0.00 89 1022.6
20260502021125 38 0 0.0 0.0 0.00 0.00 0.00 94 1024.9
20260502021006 39 0 0.0 0.0 0.00 0.00 0.00 88 1022.7
20260502020625 38 0 0.0 0.0 0.00 0.00 0.00 94 1025.0
20260502020505 40 0 0.0 0.0 0.00 0.00 0.00 88 1022.6
20260502020131 38 0 0.0 0.0 0.00 0.00 0.00 94 1024.7
20260502020006 40 0 0.0 0.0 0.00 0.00 0.00 88 1022.6
20260502015625 38 0 0.0 0.0 0.00 0.00 0.00 94 1024.9
20260502015506 40 0 0.0 0.0 0.00 0.00 0.00 88 1022.6
20260502015005 40 0 0.0 0.0 0.00 0.00 0.00 88 1022.5
20260502014625 38 0 0.0 0.0 0.00 0.00 0.00 94 1024.7
20260502013625 38 0 0.0 0.0 0.00 0.00 0.00 94 1024.8